TIME,DELAY(SENSOR),PRES,T(CTD),SAL,OXYGEN,RAWTEMP,T(OPTODE),TCPHASE,TURBIDITY,TURBIDITY_GAIN,FLUOR,BETA,CDOM,ED411.5,ED443.8,ED489.6,PAR,COMP,TILT,TILTY(TILT),CHECK
1342011266,6467,268.2399902343750000,4.9137001037597660,34.9864006042480500,349.8475036621094000,761.4531250000000000,4.8854098320007320,34.1084098815918000,16,3,50,101,64,2147247670,2147561210,2147568420,2147362848,1046,0,-12,54132
1342011326,6468,265.1199951171875000,4.9134998321533200,34.9864006042480500,349.8608093261719000,761.4456176757812000,4.8856749534606930,34.1079292297363300,16,3,48,106,64,2147244434,2147560744,2147569329,2147358052,359,0,-12,8672
1342011386,6465,262.0100097656250000,4.9137997627258300,34.9860992431640600,349.8806152343750000,761.4401855468750000,4.8858590126037600,34.1069412231445300,16,3,48,102,64,2147245892,2147562564,2147573508,2147359428,3023,0,-12,18170
1342011446,6467,258.9100036621094000,4.9134998321533200,34.9863014221191400,349.7732849121094000,761.4406738281250000,4.8858428001403810,34.1106986999511700,16,3,48,99,64,2147246591,2147560973,2147570719,2147360387,2282,0,-12,41228
1342011506,6468,255.8399963378906200,4.9133000373840330,34.9860992431640600,349.6960144042969000,761.4442749023438000,4.8857188224792480,34.1134910583496100,16,3,49,101,64,2147243209,2147561540,2147570656,2147362143,1727,0,-12,7844
1342011568,6465,252.6600036621093800,4.9133000373840330,34.9858016967773440,349.7835998535156000,761.4494018554688000,4.8855400085449220,34.1105117797851560,16,3,48,105,64,2147244772,2147561827,2147570555,2147362381,1252,0,-12,11487
1342011628,6466,249.6499938964843800,4.9126000404357910,34.9864006042480500,349.6697082519531000,761.4550170898438000,4.8853440284729000,34.1144905090332000,16,3,49,99,64,2147246792,2147564895,2147570705,2147362852,557,0,-12,48131
1342011688,6467,246.6399993896484400,4.9124999046325680,34.9863014221191400,349.7272949218750000,761.4616088867188000,4.8851127624511720,34.1126403808593750,16,3,48,109,64,2147244241,2147561174,2147570335,2147358838,3168,0,-12,4395
1342011748,6469,243.6600036621093800,4.9123997688293460,34.9860992431640600,349.8601074218750000,761.4652099609375000,4.8849868774414060,34.1080818176269500,16,3,50,103,64,2147244529,2147559345,2147569197,2147361288,2485,0,-12,51575
1342011808,6467,240.6999969482422000,4.9120998382568360,34.9861984252929700,349.8626098632812500,761.4719238281250000,4.8847517967224120,34.1083717346191400,16,3,48,103,64,2147247610,2147560182,2147569288,2147360452,1883,0,-12,12705
1342011872,6468,237.5599975585937500,4.9119000434875490,34.9861984252929700,350.0302124023437500,761.4793701171875000,4.8844909667968750,34.1026802062988300,16,3,49,102,64,2147245933,2147559510,2147570440,2147358760,1334,0,-12,45814
1342011932,6468,234.6399993896484400,4.9120001792907715,34.9858016967773440,349.9815979003906000,761.4840087890625000,4.8843269348144530,34.1046600341796900,31,3,49,104,64,2147244539,2147561485,2147570381,2147360758,849,0,-12,616
1342011996,6468,231.5000000000000000,4.9116997718811035,34.9859008789062500,349.8850097656250000,761.4926757812500000,4.8840260505676270,34.1077384948730500,16,3,48,106,64,2147246157,2147562029,2147570815,2147360722,140,0,-12,30020
1342012056,6466,228.5700073242187500,4.9106001853942870,34.9868011474609400,349.9259033203125000,761.5004882812500000,4.8837509155273440,34.1065101623535160,16,3,48,102,64,2147242450,2147561700,2147570733,2147362038,3011,0,-12,59838
1342012120,6467,225.4299926757812500,4.9109001159667970,34.9863014221191400,349.9458007812500000,761.5064086914062000,4.8835449218750000,34.1062202453613300,16,3,49,103,64,2147241704,2147560840,2147573544,2147358166,2415,0,-12,14862
1342012182,6467,222.3600006103515600,4.9109997749328610,34.9859008789062500,350.0806884765625000,761.5139770507812000,4.8832778930664060,34.1016693115234400,16,3,48,104,64,2147246756,2147562179,2147574074,2147362572,1945,0,-12,51659
1342012246,6466,219.1499938964843800,4.9106998443603520,34.9860992431640600,350.1384887695312500,761.5178222656250000,4.8831481933593750,34.0997200012207000,16,3,48,111,64,2147244891,2147562861,2147574889,2147361151,1468,0,-12,17708
1342012306,6469,216.1199951171875000,4.9102997779846190,34.9860992431640600,350.2214050292969000,761.5244140625000000,4.8829169273376465,34.0969886779785160,16,3,49,106,64,2147245686,2147560050,2147576214,2147362052,1046,0,-12,48534
1342012370,6468,212.8899993896484400,4.9100999832153320,34.9860992431640600,350.1420898437500000,761.5313110351562000,4.8826727867126465,34.0998382568359400,16,3,48,100,64,2147243551,2147563176,2147577119,2147361727,424,0,-12,59601
1342012430,6469,209.8800048828125000,4.9099998474121090,34.9860992431640600,350.0266113281250000,761.5341796875000000,4.8825697898864750,34.1040992736816400,16,3,48,102,64,2147239935,2147561622,2147578230,2147362550,3226,0,-12,15347
1342012494,6467,206.6999969482422000,4.9102001190185550,34.9856986999511700,349.9583129882812500,761.5424194335938000,4.8822841644287110,34.1062698364257800,16,3,49,105,64,2147247286,2147564776,2147583643,2147362563,2506,0,-12,31494
1342012554,6467,203.7899932861328000,4.9095997810363770,34.9860000610351560,350.0797119140625000,761.5457153320312000,4.8821702003479000,34.1024894714355500,16,3,48,107,64,2147246979,2147561965,2147583990,2147362394,1999,0,-12,63031
1342012618,6468,200.6999969482422000,4.9091000556945800,34.9864997863769500,350.0661010742187500,761.5540161132812000,4.8818778991699220,34.1030082702636700,16,3,50,104,64,2147243240,2147563515,2147583437,2147362801,1462,0,-12,46955
1342012678,6466,197.8999938964843800,4.9089999198913570,34.9864006042480500,350.1654052734375000,761.5571289062500000,4.8817710876464840,34.0997886657714840,16,3,48,108,64,2147242719,2147565078,2147588498,2147363560,1008,0,-12,57176
1342012742,6469,194.9799957275390600,4.9093999862670900,34.9858016967773440,349.9851074218750000,761.5612792968750000,4.8816218376159670,34.1060104370117200,16,3,49,103,64,2147241494,2147564306,2147591080,2147364653,374,0,-12,30087
1342012804,6468,192.2200012207031200,4.9088001251220700,34.9864006042480500,350.0739135742187500,761.5618286132812000,4.8816027641296390,34.1030693054199200,15,3,48,104,64,2147245549,2147563497,2147590221,2147364337,3182,0,-12,59012
1342012868,6469,189.4600067138672000,4.9086999893188480,34.9861984252929700,350.0828857421875000,761.5668945312500000,4.8814277648925780,34.1027412414550800,12,3,49,103,64,2147244484,2147564150,2147592200,2147364822,2595,0,-12,5701
1342012928,6469,186.8699951171875000,4.9085998535156250,34.9861984252929700,350.0176086425781000,761.5712280273438000,4.8812770843505860,34.1047706604003900,16,3,50,108,64,2147244031,2147561764,2147594212,2147362820,2119,0,-12,45355
1342012992,6466,184.1900024414062500,4.9081001281738280,34.9864006042480500,350.0676879882812500,761.5816040039062000,4.8809108734130860,34.1036109924316400,16,3,49,103,64,2147247016,2147563487,2147593215,2147364794,1646,0,-12,46944
1342013052,6466,181.6799926757812500,4.9081997871398930,34.9863014221191400,350.0763854980469000,761.5806274414062000,4.8809471130371090,34.1029701232910160,16,3,48,107,64,2147244763,2147562646,2147598674,2147369073,1194,0,-12,35855
1342013116,6467,178.9799957275390600,4.9081001281738280,34.9861984252929700,350.0393981933594000,761.5855102539062000,4.8807749748229980,34.1045188903808600,16,3,48,104,64,2147243085,2147561187,2147600374,2147360991,667,0,-12,11296
1342013176,6467,176.5000000000000000,4.9084000587463380,34.9855995178222660,350.1629943847656000,761.5891723632812000,4.8806462287902830,34.1004104614257800,16,3,49,107,64,2147247363,2147560649,2147602445,2147363053,33,0,-12,19447
1342013240,6466,173.8500061035156200,4.9077000617980960,34.9861984252929700,350.0459899902344000,761.5952148437500000,4.8804378509521480,34.1044006347656250,16,3,49,104,65,2147248035,2147563158,2147604639,2147364781,2951,0,-12,12621
1342013300,6466,171.3999938964843800,4.9074997901916500,34.9863014221191400,350.0895080566406000,761.5975952148438000,4.8803501129150390,34.1031608581543000,16,3,49,111,65,2147243483,2147563835,2147605302,2147363501,2433,0,-12,58413
1342013364,6467,168.8000030517578000,4.9077000617980960,34.9861984252929700,350.0566101074219000,761.5963745117188000,4.8803901672363280,34.1044387817382800,10,3,49,105,64,2147246262,2147565284,2147607487,2147366454,1974,0,-12,45055
1342013426,6466,166.3200073242187500,4.9074001312255860,34.9863014221191400,349.9798889160156000,761.6016845703125000,4.8802070617675780,34.1068382263183600,16,3,49,106,64,2147245654,2147559519,2147613795,2147365320,1569,0,-12,19570
1342013490,6469,163.7899932861328000,4.9067997932434080,34.9868011474609400,350.0239868164062500,761.6066284179688000,4.8800349235534670,34.1053199768066400,17,3,50,111,64,2147244936,2147565841,2147617421,2147366353,1168,0,-12,61925
1342013550,6467,161.4299926757812500,4.9072999954223630,34.9861984252929700,350.0965881347656000,761.6068725585938000,4.8800239562988280,34.1031303405761700,16,3,49,109,64,2147245691,2147564726,2147620968,2147367574,698,0,-12,10593
1342013642,6468,157.1199951171875000,4.9071002006530760,34.9859008789062500,349.9386901855469000,761.6317138671875000,4.8791561126708980,34.1088905334472660,16,3,49,111,64,2147244579,2147563862,2147630285,2147367597,2950,0,-12,395
1342013702,6466,153.5200042724609400,4.9068999290466310,34.9859008789062500,350.0863952636719000,761.6392211914062000,4.8788928985595700,34.1040802001953100,11,3,50,111,64,2147246537,2147565526,2147636460,2147369731,2293,0,-12,9605
1342013766,6466,149.6499938964843800,4.9065999984741210,34.9858016967773440,349.9602050781250000,761.6436767578125000,4.8787360191345215,34.1082000732421900,16,3,50,112,64,2147246678,2147568717,2147646688,2147368607,1577,0,-12,22711
1342013826,6468,146.0200042724609400,4.9060997962951660,34.9863014221191400,350.0725097656250000,761.6508178710938000,4.8784890174865720,34.1045799255371100,16,3,50,112,64,2147245201,2147567592,2147655478,2147372909,918,0,-12,24906
1342013913,6468,141.3699951171875000,4.9061999320983890,34.9858016967773440,350.1791076660156000,761.6555175781250000,4.8783249855041500,34.1013908386230500,16,3,48,105,64,2147245293,2147572497,2147664461,2147374348,3287,0,-12,20021
1342013973,6504,138.9900054931640600,4.9059000015258790,34.9861984252929700,350.2506103515625000,761.6480712890625000,4.8785839080810550,34.0984611511230500,16,3,50,112,64,2147243565,2147571140,2147669901,2147369503,2704,0,-12,3064
1342014037,6466,136.5700073242187500,4.9052000045776370,34.9869003295898440,350.1141052246094000,761.6458129882812000,4.8786621093750000,34.1030807495117200,16,3,50,110,64,2147245846,2147568191,2147669695,2147373823,2296,0,-12,24625
1342014099,6467,134.2500000000000000,4.9060997962951660,34.9859008789062500,350.1512145996094000,761.6445922851562000,4.8787078857421875,34.1021385192871100,16,3,50,108,65,2147244704,2147572342,2147670729,2147374047,2020,0,-12,42047
1342014187,6467,130.2400054931640600,4.9061999320983890,34.9858016967773440,350.1871032714844000,761.6586303710938000,4.8782181739807130,34.1009101867675800,16,3,49,131,64,2147244269,2147569563,2147680594,2147374870,1308,0,-12,40287
1342014247,6468,126.6699981689453100,4.9063000679016110,34.9861984252929700,350.1296081542969000,761.6473999023438000,4.8786091804504395,34.1026802062988300,16,3,49,115,64,2147246646,2147573649,2147691916,2147376374,545,0,-12,27749
1342014311,6468,122.7600021362304700,4.9060997962951660,34.9860992431640600,350.0274963378906000,761.6513061523438000,4.8784708976745605,34.1064300537109400,16,3,50,117,64,2147246312,2147579034,2147710010,2147380562,3065,0,-12,56640
1342014371,6466,119.0500030517578100,4.9067001342773440,34.9859008789062500,349.9967956542969000,761.6390991210938000,4.8788971900939940,34.1068000793457000,10,3,50,123,66,2147245379,2147581796,2147738276,2147385563,2350,0,-12,53631
1342014459,6466,114.1299972534179700,4.9074997901916500,34.9860000610351560,349.7442016601562500,761.6102294921875000,4.8799109458923340,34.1148796081543000,16,3,50,117,64,2147246390,2147587186,2147786157,2147392209,1530,0,-12,16080
1342014519,6466,111.6200027465820300,4.9074001312255860,34.9861984252929700,349.6854858398437500,761.5986938476562000,4.8803119659423830,34.1166496276855500,16,3,50,116,64,2147245216,2147595872,2147815364,2147399537,1177,0,-12,43285
1342014583,6469,109.0400009155273400,4.9095997810363770,34.9859008789062500,349.6353149414062500,761.5482177734375000,4.8820819854736330,34.1173286437988300,16,3,50,115,66,2147245458,2147600845,2147853590,2147404374,832,0,-12,21364
1342014643,6468,106.6999969482421900,4.9106998443603520,34.9856986999511700,349.4772949218750000,761.5145874023438000,4.8832588195800780,34.1220893859863300,16,3,50,116,64,2147248013,2147609892,2147891683,2147409805,460,0,-12,42476
1342014731,6468,102.6399993896484400,4.9114999771118160,34.9855995178222660,349.3927001953125000,761.5012207031250000,4.8837261199951170,34.1247711181640600,15,3,49,121,64,2147248557,2147618495,2147954404,2147420717,2957,0,-12,8661
1342014793,6466,98.9300003051757800,4.9120998382568360,34.9852981567382800,349.3313903808594000,761.4885864257812000,4.8841648101806640,34.1264610290527340,16,3,50,123,63,2147253238,2147625088,2148004031,2147431935,2278,0,-12,11010
1342014857,6468,95.0599975585937500,4.9134998321533200,34.9852981567382800,349.3317871093750000,761.4528198242188000,4.8854198455810550,34.1258201599121100,16,3,50,123,65,2147254880,2147639190,2148073402,2147443377,1630,0,-12,45821
1342014919,6467,91.3099975585937500,4.9201998710632320,34.9850006103515600,349.3078002929687500,761.2713012695312000,4.8917770385742190,34.1232604980468750,14,3,50,123,64,2147260580,2147650605,2148141595,2147460044,1118,0,-12,39064
1342015006,6467,86.7200012207031200,4.9295997619628910,34.9852981567382800,349.1818847656250000,760.9630737304688000,4.9025650024414060,34.1213302612304700,16,3,50,121,64,2147264200,2147666824,2148213864,2147475414,68,0,-12,15547
1342015068,6468,84.3099975585937500,4.9344000816345215,34.9846000671386700,348.9530029296875000,760.8643188476562000,4.9060249328613280,34.1268882751464840,16,3,50,123,64,2147264689,2147672562,2148250646,2147487821,3055,0,-12,8938
1342015132,6465,81.9300003051757800,4.9383001327514650,34.9849014282226560,348.9957885742187500,760.7282714843750000,4.9107799530029300,34.1228599548339840,14,3,52,125,64,2147267574,2147683597,2148291244,2147499249,2536,0,-12,58844
1342015194,6467,79.5400009155273400,4.9580998420715330,34.9844017028808600,348.7435913085937500,760.2537841796875000,4.9273891448974610,34.1222801208496100,70,3,52,124,64,2147272868,2147698943,2148375025,2147516735,2131,0,-12,63239
1342015281,6467,75.4000015258789000,4.9590997695922850,34.9855003356933600,348.4041137695312500,760.1179199218750000,4.9321460723876950,34.1305198669433600,16,3,53,125,66,2147288054,2147768914,2148647624,2147579990,1673,0,-12,42482
1342015343,6467,71.4599990844726600,5.0103001594543460,34.9849014282226560,347.9917907714844000,758.9197998046875000,4.9740557670593260,34.1210289001464840,16,3,54,131,66,2147306724,2147854043,2148995204,2147659876,1030,0,-12,49657
1342015407,6467,67.4000015258789000,5.0427999496459960,34.9854011535644500,347.9692077636719000,757.8342285156250000,5.0120139122009280,34.1004104614257800,16,3,61,133,65,2147338143,2147965741,2149411474,2147766952,3493,0,-12,18386
1342015469,6467,63.5999984741210940,5.0732002258300780,34.9860992431640600,348.0332946777344000,756.9124145507812000,5.0442299842834470,34.0798988342285160,13,3,67,138,66,2147378884,2148072987,2149787135,2147870381,2627,0,-12,16040
1342015556,6465,59.3300018310546900,5.1648001670837400,34.9883995056152340,347.6145935058594000,754.4769287109375000,5.1292920112609860,34.0464096069335940,14,3,79,136,66,2147423560,2148184977,2150155826,2147986207,2304,0,-12,8840
1342015618,6467,57.5299987792968750,5.2062001228332520,34.9902992248535160,347.6177978515625000,753.3551025390625000,5.1684379577636720,34.0243911743164060,14,3,77,139,66,2147453114,2148240859,2150340745,2148050298,2024,0,-12,4771
1342015705,6465,54.6800003051757800,5.2725000381469730,34.9920997619628900,347.5396118164062500,751.2493286132812000,5.2418789863586430,33.9858093261718750,17,3,90,142,66,2147510304,2148366345,2150742326,2148184653,1613,0,-11,6182
1342015767,6469,51.7999992370605500,5.3126997947692870,34.9934997558593750,348.2188110351562500,750.1107788085938000,5.2815551757812500,33.9404296875000000,20,3,112,156,66,2147580475,2148500013,2151140909,2148342596,1213,0,-12,35994
1342015831,6470,48.8400001525878900,5.3453998565673830,34.9948997497558600,348.4829101562500000,748.8411865234375000,5.3257751464843750,33.9069099426269500,18,3,136,165,66,2147670843,2148651089,2151596182,2148528223,582,0,-12,64912
1342015893,6469,46.0400009155273440,5.4324002265930180,34.9963989257812500,349.1401062011719000,746.7600097656250000,5.3982200622558590,33.8443183898925800,33,3,164,246,66,2147795337,2148868891,2152206692,2148777311,3120,0,-11,10032
1342015957,6468,43.2099990844726560,5.4541997909545900,34.9976005554199200,349.5130920410156000,745.3154296875000000,5.4484691619873050,33.8039817810058600,20,3,172,303,66,2147905832,2149028923,2152658738,2148992538,2587,0,-12,45004
1342016019,6469,40.5900001525878900,5.5276999473571780,34.9986000061035160,350.4219970703125000,743.9682006835938000,5.4952960014343260,33.7473297119140600,24,3,198,211,66,2148075638,2149273850,2153323679,2149308689,2127,0,-12,15713
1342016083,6505,37.8899993896484400,5.5493001937866210,34.9995994567871100,351.2023010253906000,743.1690063476562000,5.5230660438537600,33.7057304382324200,25,3,206,219,66,2148276708,2149526614,2153983843,2149660091,1738,0,-12,14923
1342016145,6468,35.2200012207031250,5.6020002365112305,35.0001983642578100,351.6830139160156000,741.5955810546875000,5.5777068138122560,33.6595191955566400,29,3,226,233,66,2148665846,2150043336,2155222554,2150273119,1264,0,-12,43555
1342016209,6470,32.4399986267089840,5.6791000366210940,34.9999008178710940,352.3407897949219000,739.5471801757812000,5.6487941741943360,33.5983009338378900,31,3,260,253,65,2149182258,2150661046,2156652251,2151037846,707,0,-12,43984
1342016271,6469,29.6700000762939450,6.0262999534606930,35.0015983581543000,353.4649963378906000,730.4971923828125000,5.9621281623840330,33.3893814086914060,46,3,404,393,66,2150161855,2151889027,2159347241,2152339862,3235,0,-12,19028
1342016335,6471,26.7900009155273440,6.2328000068664550,34.9949989318847660,357.5351867675781000,722.8109741210938000,6.2273287773132320,33.1118011474609400,57,3,453,438,65,2152136136,2154347331,2164264475,2154660392,3089,0,-12,9473
1342016397,6471,23.9300003051757800,6.9844999313354490,35.0098991394043000,360.8670043945312500,702.2744750976562000,6.9318900108337400,32.6287193298339840,100,3,535,486,65,2155216173,2158080205,2171070582,2157886738,121,0,-12,40125
1342016461,6471,21.4699993133544920,7.5093002319335940,35.0322990417480500,372.3299865722656000,687.7545166015625000,7.4266109466552730,32.0118789672851560,95,3,668,526,65,2159098797,2162672223,2178767222,2161529041,540,0,-12,5780
1342016523,6470,19.4699993133544920,8.2995996475219730,35.0008010864257800,373.7721862792969000,668.6885986328125000,8.0720767974853520,31.6378898620605470,90,3,638,634,64,2163784502,2168111222,2187225366,2165591026,625,0,-11,60246
1342016615,6467,16.6900005340576170,9.8537998199462890,35.0455017089843750,370.1742858886719000,621.0374145507812000,9.6659259796142580,30.9570503234863280,97,3,633,679,63,2173770097,2179399062,2203433914,2173542673,1549,1,-14,48093
1342016677,6470,15.6199998855590820,10.1469001770019530,35.0322990417480500,369.7514038085937500,609.6762084960938000,10.0420999526977540,30.7884197235107420,91,3,605,548,64,2178041128,2184544064,2211403035,2177399926,2010,2,-12,63203
1342016824,6470,13.2200002670288090,10.6809997558593750,35.0428009033203100,364.9111938476562500,591.5968017578125000,10.6378803253173830,30.6508407592773440,105,3,490,488,60,2195349356,2203556442,2234993489,2189611551,1686,0,-11,13227
1342016904,6470,11.1300001144409180,11.1534996032714840,35.0509986877441400,359.5038146972656000,576.5576782226562000,11.1309003829956050,30.5841293334960940,86,3,382,489,64,2218573060,2229847849,2267762116,2207482189,1668,1,-11,48999
1342016979,6470,8.3299999237060550,11.2300996780395500,35.0560989379882800,358.0557861328125000,573.5222778320312000,11.2301397323608400,30.5824108123779300,77,3,245,488,56,2265844753,2280459072,2321298989,2240337865,1362,0,-10,2436
1342017050,6471,4.9600000381469730,11.2864999771118160,35.0559997558593750,357.3160095214844000,571.9857177734375000,11.2803401947021480,30.5816898345947270,78,3,166,482,48,2339542691,2358217389,2398327780,2299940758,1534,-5,-8,32637
1342017110,6469,0.8999999761581421,0.0000000000000000,0.0000000000000000,356.8935852050781000,570.0446777343750000,11.3437204360961910,30.5653495788574220,74,3,149,454,58,2402745165,2424893471,2458477539,2358757393,751,-14,6,35276
1342017137,6469,15.0000000000000000,0.0000000000000000,0.0000000000000000,356.8367919921875000,570.2224121093750000,11.3379201889038090,30.5696792602539060,83,3,146,472,48,2451238797,2463878514,2487389677,2424826116,1657,12,-3,50529
